START_TIME,STEP,MOV.,M15,t_acc.,M20,t_acc.
1979-08-03 18:00:42.620 ,0,1,0.,24.0,0.,24.0
1979-08-03 18:01:06.620 ,4,1,0.,24.0,0.,24.0
1979-08-03 18:01:30.620 ,7,1,0.,24.0,0.,24.0
1979-08-03 18:01:54.620 ,3,1,0.,24.0,0.,24.0
1979-08-03 18:02:18.620 ,0,1,0.,24.0,0.,24.0
1979-08-03 18:02:42.620 ,4,1,0.,24.0,0.,24.0
1979-08-03 18:03:06.620 ,7,1,0.,24.0,0.,24.0
1979-08-03 18:03:30.620 ,3,1,0.,24.0,0.,24.0
1979-08-03 18:03:54.620 ,0,1,0.,24.0,0.,24.0
1979-08-03 18:04:18.620 ,4,1,0.,24.0,0.,24.0
1979-08-03 18:04:42.620 ,7,1,0.,24.0,0.,24.0
1979-08-03 18:05:06.620 ,3,1,0.,24.0,0.,24.0
1979-08-03 18:05:30.620 ,0,1,0.,24.0,0.,24.0
1979-08-03 18:05:54.620 ,0,0,0.,24.0,0.,24.0
1979-08-03 18:06:18.620 ,0,0,0.,24.0,0.,24.0
1979-08-03 18:06:42.620 ,5,1,0.,24.0,0.,24.0
1979-08-03 18:07:06.620 ,5,0,0.,24.0,0.,24.0
1979-08-03 18:07:30.620 ,4,1,0.,24.0,0.,24.0
1979-08-03 18:07:54.620 ,4,0,0.,24.0,0.,24.0
1979-08-03 18:08:18.620 ,3,1,0.,24.0,0.,24.0
1979-08-03 18:08:42.620 ,3,0,0.,24.0,0.,24.0
1979-08-03 18:09:06.620 ,2,1,0.,24.0,0.,24.0
1979-08-03 18:09:30.620 ,2,0,0.,24.0,0.,24.0
1979-08-03 18:09:54.620 ,1,1,0.,24.0,0.,24.0
1979-08-03 18:10:18.620 ,1,0,0.,24.0,0.,24.0
1979-08-03 18:10:42.620 ,0,1,0.,24.0,0.,24.0
1979-08-03 18:11:06.620 ,0,0,0.,24.0,0.,24.0
1979-08-03 18:11:30.620 ,0,1,0.,24.0,0.,24.0
1979-08-03 18:11:54.620 ,0,0,0.,24.0,0.,24.0
1979-08-03 18:12:18.620 ,1,1,0.,24.0,0.,24.0
1979-08-03 18:12:42.620 ,1,0,0.,24.0,0.,24.0
1979-08-03 18:13:06.620 ,2,1,0.,24.0,0.,24.0
1979-08-03 18:13:30.620 ,2,0,0.,24.0,0.,24.0
1979-08-03 18:13:54.620 ,3,1,0.,24.0,0.,24.0
1979-08-03 18:14:18.620 ,3,0,0.,24.0,0.,24.0
1979-08-03 18:14:42.620 ,4,1,0.,24.0,0.,24.0
1979-08-03 18:15:06.620 ,4,0,0.,24.0,0.,24.0
1979-08-03 18:15:30.620 ,5,1,0.,24.0,0.,24.0
1979-08-03 18:15:54.620 ,5,0,0.,24.0,0.,24.0
1979-08-03 18:16:18.620 ,6,1,0.,24.0,0.,24.0
1979-08-03 18:16:42.620 ,6,0,0.,24.0,0.,24.0
1979-08-03 18:17:06.620 ,7,1,0.,24.0,0.,24.0
1979-08-03 18:17:30.620 ,7,0,0.,24.0,0.,24.0
1979-08-03 18:17:54.620 ,7,1,0.,24.0,0.,24.0
1979-08-03 18:18:18.620 ,7,0,0.,24.0,0.,24.0
1979-08-03 18:18:42.620 ,6,1,0.,24.0,0.,24.0
1979-08-03 18:19:06.620 ,6,0,0.,24.0,0.,24.0
1979-08-03 18:19:30.620 ,5,1,0.,24.0,0.,24.0
1979-08-03 18:19:54.620 ,5,0,0.,24.0,0.,24.0
1979-08-03 18:20:18.620 ,4,1,0.,24.0,0.,24.0
1979-08-03 18:20:42.620 ,4,0,0.,24.0,0.,24.0
1979-08-03 18:21:06.620 ,3,1,0.,24.0,0.,24.0
1979-08-03 18:21:30.620 ,3,0,0.,24.0,0.,24.0
1979-08-03 18:21:54.620 ,2,1,0.,24.0,0.,24.0
1979-08-03 18:22:18.620 ,2,0,0.,24.0,0.,24.0
1979-08-03 18:22:42.620 ,1,1,0.,24.0,0.,24.0
1979-08-03 18:23:06.620 ,1,0,0.,24.0,0.,24.0
1979-08-03 18:23:30.620 ,0,1,0.,24.0,0.,24.0
1979-08-03 18:23:54.620 ,0,0,0.,24.0,0.,24.0
1979-08-03 18:24:18.620 ,0,1,0.,24.0,0.,24.0
1979-08-03 18:24:42.620 ,0,0,0.,24.0,0.,24.0
1979-08-03 18:25:06.620 ,1,1,0.,24.0,0.,24.0
1979-08-03 18:25:30.620 ,1,0,0.,24.0,0.,24.0
1979-08-03 18:25:54.620 ,2,1,0.,24.0,0.,24.0
1979-08-03 18:26:18.620 ,2,0,0.,24.0,0.,24.0
1979-08-03 18:26:42.620 ,3,1,0.,24.0,0.,24.0
1979-08-03 18:27:06.620 ,3,0,0.,24.0,0.,24.0
1979-08-03 18:27:30.620 ,4,1,0.,24.0,0.,24.0
1979-08-03 18:27:54.620 ,4,0,0.,24.0,0.,24.0
1979-08-03 18:28:18.620 ,5,1,0.,24.0,0.,24.0
1979-08-03 18:28:42.620 ,5,0,0.,24.0,0.,24.0
1979-08-03 18:29:06.620 ,6,1,0.,24.0,0.,24.0
1979-08-03 18:29:30.620 ,6,0,0.,24.0,0.,24.0
1979-08-03 18:29:54.620 ,7,1,0.,24.0,0.,24.0
1979-08-03 18:30:18.620 ,7,0,0.,24.0,0.,24.0
1979-08-03 18:30:42.620 ,7,1,0.,24.0,0.,24.0
1979-08-03 18:31:06.620 ,7,0,0.,24.0,0.,24.0
1979-08-03 18:31:30.620 ,6,1,0.,24.0,0.,24.0
1979-08-03 18:31:54.620 ,6,0,0.,24.0,0.,24.0
1979-08-03 18:32:18.620 ,5,1,0.,24.0,0.,24.0
1979-08-03 18:32:42.620 ,5,0,0.,24.0,0.,24.0
1979-08-03 18:33:06.620 ,4,1,0.,24.0,0.,24.0
1979-08-03 18:33:30.620 ,4,0,0.,24.0,0.,24.0
1979-08-03 18:33:54.620 ,3,1,0.,24.0,0.,24.0
1979-08-03 18:34:18.620 ,3,0,0.,24.0,0.,24.0
1979-08-03 18:34:42.620 ,2,1,0.,24.0,0.,24.0
1979-08-03 18:35:06.620 ,2,0,0.,24.0,0.,24.0
1979-08-03 18:35:30.620 ,1,1,0.,24.0,0.,24.0
1979-08-03 18:35:54.620 ,1,0,0.,24.0,0.,24.0
1979-08-03 18:36:18.620 ,0,1,0.,24.0,0.,24.0
1979-08-03 18:36:42.620 ,0,0,0.,24.0,0.,24.0
1979-08-03 18:37:06.620 ,0,1,0.,24.0,0.,24.0
1979-08-03 18:37:30.620 ,0,0,0.,24.0,0.,24.0
1979-08-03 18:37:54.620 ,1,1,0.,24.0,0.,24.0
1979-08-03 18:38:18.620 ,1,0,0.,24.0,0.,24.0
1979-08-03 18:38:42.620 ,2,1,0.,24.0,0.,24.0
1979-08-03 18:39:06.620 ,2,0,0.,24.0,0.,24.0
1979-08-03 18:39:30.620 ,3,1,0.,24.0,0.,24.0
1979-08-03 18:39:54.620 ,3,0,0.,24.0,0.,24.0
1979-08-03 18:40:18.620 ,4,1,0.,24.0,0.,24.0
1979-08-03 18:40:42.620 ,4,0,0.,24.0,0.,24.0
1979-08-03 18:41:06.620 ,5,1,0.,24.0,0.,24.0
1979-08-03 18:41:30.620 ,5,0,0.,24.0,0.,24.0
1979-08-03 18:41:54.620 ,6,1,0.,24.0,0.,24.0
1979-08-03 18:42:18.620 ,6,0,0.,24.0,0.,24.0
1979-08-03 18:42:42.620 ,7,0,0.,24.0,0.,24.0
1979-08-03 18:43:06.620 ,7,0,0.,24.0,0.,24.0
1979-08-03 18:43:30.620 ,3,1,0.,24.0,0.,24.0
1979-08-03 18:43:54.620 ,0,1,0.,24.0,0.,24.0
1979-08-03 18:44:18.620 ,4,1,0.,24.0,0.,24.0
1979-08-03 18:44:42.620 ,7,1,0.,24.0,0.,24.0
1979-08-03 18:45:06.620 ,3,1,0.,24.0,0.,24.0
1979-08-03 18:45:30.620 ,0,1,0.,24.0,0.,24.0
1979-08-03 18:45:54.620 ,4,1,0.,24.0,0.,24.0
1979-08-03 18:46:18.620 ,7,1,0.,24.0,0.,24.0
1979-08-03 18:46:42.620 ,3,1,0.,24.0,0.,24.0
1979-08-03 18:47:06.620 ,0,1,0.,24.0,0.,24.0
1979-08-03 18:47:30.620 ,4,1,0.,24.0,0.,24.0
1979-08-03 18:47:54.620 ,7,1,0.,24.0,0.,24.0
1979-08-03 18:48:18.620 ,3,1,0.,24.0,0.,24.0
1979-08-03 18:48:42.620 ,0,1,0.,24.0,0.,24.0
1979-08-03 18:49:06.620 ,4,1,0.,24.0,0.,24.0
1979-08-03 18:49:30.620 ,7,1,0.,24.0,0.,24.0
1979-08-03 18:49:54.620 ,3,1,0.,24.0,0.,24.0
1979-08-03 18:50:18.620 ,0,1,0.,24.0,0.,24.0
1979-08-03 18:50:42.620 ,4,1,0.,24.0,0.,24.0
1979-08-03 18:51:06.620 ,7,1,0.,24.0,0.,24.0
1979-08-03 18:51:30.620 ,3,1,0.,24.0,0.,24.0
1979-08-03 18:51:54.620 ,0,1,0.,24.0,0.,24.0
1979-08-03 18:52:18.620 ,4,1,0.,24.0,0.,24.0
1979-08-03 18:52:42.620 ,7,1,0.,24.0,0.,24.0
1979-08-03 18:53:06.620 ,3,1,0.,24.0,0.,24.0
1979-08-03 18:53:30.620 ,0,1,0.,24.0,0.,24.0
1979-08-03 18:53:54.620 ,0,0,0.,24.0,0.,24.0
1979-08-03 18:54:18.620 ,0,0,0.,24.0,0.,24.0
1979-08-03 18:54:42.620 ,5,1,0.,24.0,0.,24.0
1979-08-03 18:55:06.620 ,5,0,0.,24.0,0.,24.0
1979-08-03 18:55:30.620 ,4,1,0.,24.0,0.,24.0
1979-08-03 18:55:54.620 ,4,0,0.,24.0,0.,24.0
1979-08-03 18:56:18.620 ,3,1,0.,24.0,0.,24.0
1979-08-03 18:56:42.620 ,3,0,0.,24.0,0.,24.0
1979-08-03 18:57:06.620 ,2,1,0.,24.0,0.,24.0
1979-08-03 18:57:30.620 ,2,0,0.,24.0,0.,24.0
1979-08-03 18:57:54.620 ,1,1,0.,24.0,0.,24.0
1979-08-03 18:58:18.620 ,1,0,0.,24.0,0.,24.0
1979-08-03 18:58:42.620 ,0,1,0.,24.0,0.,24.0
1979-08-03 18:59:06.620 ,0,0,0.,24.0,0.,24.0
1979-08-03 18:59:30.620 ,0,1,0.,24.0,0.,24.0
1979-08-03 18:59:54.620 ,0,0,0.,24.0,0.,24.0
1979-08-03 19:00:18.620 ,1,1,0.,24.0,0.,24.0
1979-08-03 19:00:42.620 ,1,0,0.,24.0,0.,24.0
1979-08-03 19:01:06.620 ,2,1,0.,24.0,0.,24.0
1979-08-03 19:01:30.620 ,2,0,0.,24.0,0.,24.0
1979-08-03 19:01:54.620 ,3,1,0.,24.0,0.,24.0
1979-08-03 19:02:18.620 ,3,0,0.,24.0,0.,24.0
1979-08-03 19:02:42.620 ,4,1,0.,24.0,0.,24.0
1979-08-03 19:03:06.620 ,4,0,0.,24.0,0.,24.0
1979-08-03 19:03:30.620 ,5,1,0.,24.0,0.,24.0
1979-08-03 19:03:54.620 ,5,0,0.,24.0,0.,24.0
1979-08-03 19:04:18.620 ,6,1,0.,24.0,0.,24.0
1979-08-03 19:04:42.620 ,6,0,0.,24.0,0.,24.0
1979-08-03 19:05:06.620 ,7,1,0.,24.0,0.,24.0
1979-08-03 19:05:30.620 ,7,0,0.,24.0,0.,24.0
1979-08-03 19:05:54.620 ,7,1,0.,24.0,0.,24.0
1979-08-03 19:06:18.620 ,7,0,0.,24.0,0.,24.0
1979-08-03 19:06:42.620 ,6,1,0.,24.0,0.,24.0
1979-08-03 19:07:06.620 ,6,0,0.,24.0,0.,24.0
1979-08-03 19:07:30.620 ,5,1,0.,24.0,0.,24.0
1979-08-03 19:07:54.620 ,5,0,0.,24.0,0.,24.0
1979-08-03 19:08:18.620 ,4,1,0.,24.0,0.,24.0
1979-08-03 19:08:42.620 ,4,0,0.,24.0,0.,24.0
1979-08-03 19:09:06.620 ,3,1,0.,24.0,0.,24.0
1979-08-03 19:09:30.620 ,3,0,0.,24.0,0.,24.0
1979-08-03 19:09:54.620 ,2,1,0.,24.0,0.,24.0
1979-08-03 19:10:18.620 ,2,0,0.,24.0,0.,24.0
1979-08-03 19:10:42.620 ,1,1,0.,24.0,0.,24.0
1979-08-03 19:11:06.620 ,1,0,0.,24.0,0.,24.0
1979-08-03 19:11:30.620 ,0,1,0.,24.0,0.,24.0
1979-08-03 19:11:54.620 ,0,0,0.,24.0,0.,24.0
1979-08-03 19:12:18.620 ,0,1,0.,24.0,0.,24.0
1979-08-03 19:12:42.620 ,0,0,0.,24.0,0.,24.0
1979-08-03 19:13:06.620 ,1,1,0.,24.0,0.,24.0
1979-08-03 19:13:30.620 ,1,0,0.,24.0,0.,24.0
1979-08-03 19:13:54.620 ,2,1,0.,24.0,0.,24.0
1979-08-03 19:14:18.620 ,2,0,0.,24.0,0.,24.0
1979-08-03 19:14:42.620 ,3,1,0.,24.0,0.,24.0
1979-08-03 19:15:06.620 ,3,0,0.,24.0,0.,24.0
1979-08-03 19:15:30.620 ,4,1,0.,24.0,0.,24.0
1979-08-03 19:15:54.620 ,4,0,0.,24.0,0.,24.0
1979-08-03 19:16:18.620 ,5,1,0.,24.0,0.,24.0
1979-08-03 19:16:42.620 ,5,0,0.,24.0,0.,24.0
1979-08-03 19:17:06.620 ,6,1,0.,24.0,0.,24.0
1979-08-03 19:17:30.620 ,6,0,0.,24.0,0.,24.0
1979-08-03 19:17:54.620 ,7,1,0.,24.0,0.,24.0
1979-08-03 19:18:18.620 ,7,0,0.,24.0,0.,24.0
1979-08-03 19:18:42.620 ,7,1,0.,24.0,0.,24.0
1979-08-03 19:19:06.620 ,7,0,0.,24.0,0.,24.0
1979-08-03 19:19:30.620 ,6,1,0.,24.0,0.,24.0
1979-08-03 19:19:54.620 ,6,0,0.,24.0,0.,24.0
1979-08-03 19:20:18.620 ,5,1,0.,24.0,0.,24.0
1979-08-03 19:20:42.620 ,5,0,0.,24.0,0.,24.0
1979-08-03 19:21:06.620 ,4,1,0.,24.0,0.,24.0
1979-08-03 19:21:30.620 ,4,0,0.,24.0,0.,24.0
1979-08-03 19:21:54.620 ,3,1,0.,24.0,0.,24.0
1979-08-03 19:22:18.620 ,3,0,0.,24.0,0.,24.0
1979-08-03 19:22:42.620 ,2,1,0.,24.0,0.,24.0
1979-08-03 19:23:06.620 ,2,0,0.,24.0,0.,24.0
1979-08-03 19:23:30.620 ,1,1,0.,24.0,0.,24.0
1979-08-03 19:23:54.620 ,1,0,0.,24.0,0.,24.0
1979-08-03 19:24:18.620 ,0,1,0.,24.0,0.,24.0
1979-08-03 19:24:42.620 ,0,0,0.,24.0,0.,24.0
1979-08-03 19:25:06.620 ,0,1,0.,24.0,0.,24.0
1979-08-03 19:25:30.620 ,0,0,0.,24.0,0.,24.0
1979-08-03 19:25:54.620 ,1,1,0.,24.0,0.,24.0
1979-08-03 19:26:18.620 ,1,0,0.,24.0,0.,24.0
1979-08-03 19:26:42.620 ,2,1,0.,24.0,0.,24.0
1979-08-03 19:27:06.620 ,2,0,0.,24.0,0.,24.0
1979-08-03 19:27:30.620 ,3,1,0.,24.0,0.,24.0
1979-08-03 19:27:54.620 ,3,0,0.,24.0,0.,24.0
1979-08-03 19:28:18.620 ,4,1,0.,24.0,0.,24.0
1979-08-03 19:28:42.620 ,4,0,0.,24.0,0.,24.0
1979-08-03 19:29:06.620 ,5,1,0.,24.0,0.,24.0
1979-08-03 19:29:30.620 ,5,0,0.,24.0,0.,24.0
1979-08-03 19:29:54.620 ,6,1,0.,24.0,0.,24.0
1979-08-03 19:30:18.620 ,6,0,0.,24.0,0.,24.0
1979-08-03 19:30:42.620 ,7,0,0.,24.0,0.,24.0
1979-08-03 19:31:06.620 ,7,0,0.,24.0,0.,24.0
1979-08-03 19:31:30.620 ,3,1,0.,24.0,0.,24.0
1979-08-03 19:31:54.620 ,0,1,0.,24.0,0.,24.0
1979-08-03 19:32:18.620 ,4,1,0.,24.0,0.,24.0
1979-08-03 19:32:42.620 ,7,1,0.,24.0,0.,24.0
1979-08-03 19:33:06.620 ,3,1,0.,24.0,0.,24.0
1979-08-03 19:33:30.620 ,0,1,0.,24.0,0.,24.0
1979-08-03 19:33:54.620 ,4,1,0.,24.0,0.,24.0
1979-08-03 19:34:18.620 ,7,1,0.,24.0,0.,24.0
1979-08-03 19:34:42.620 ,3,1,0.,24.0,0.,24.0
1979-08-03 19:35:06.620 ,0,1,0.,24.0,0.,24.0
1979-08-03 19:35:30.620 ,4,1,0.,24.0,0.,24.0
1979-08-03 19:35:54.620 ,7,1,0.,24.0,0.,24.0
1979-08-03 19:36:18.620 ,3,1,0.,24.0,0.,24.0
1979-08-03 19:36:42.620 ,0,1,0.,24.0,0.,24.0
1979-08-03 19:37:06.620 ,4,1,0.,24.0,0.,24.0
1979-08-03 19:37:30.620 ,7,1,0.,24.0,0.,24.0
1979-08-03 19:37:54.620 ,3,1,0.,24.0,0.,24.0
1979-08-03 19:38:18.620 ,0,1,0.,24.0,0.,24.0
1979-08-03 19:38:42.620 ,4,1,0.,24.0,0.,24.0
1979-08-03 19:39:06.620 ,7,1,0.,24.0,0.,24.0
1979-08-03 19:39:30.620 ,3,1,0.,24.0,0.,24.0
1979-08-03 19:39:54.620 ,0,1,0.,24.0,0.,24.0
1979-08-03 19:40:18.620 ,4,1,0.,24.0,0.,24.0
1979-08-03 19:40:42.620 ,7,1,0.,24.0,0.,24.0
1979-08-03 19:41:06.620 ,3,1,0.,24.0,0.,24.0
1979-08-03 19:41:30.620 ,0,1,0.,24.0,0.,24.0
1979-08-03 19:41:54.620 ,0,0,0.,24.0,0.,24.0
1979-08-03 19:42:18.620 ,0,0,0.,24.0,0.,24.0
1979-08-03 19:42:42.620 ,5,1,0.,24.0,0.,24.0
1979-08-03 19:43:06.620 ,5,0,0.,24.0,0.,24.0
1979-08-03 19:43:30.620 ,4,1,0.,24.0,0.,24.0
1979-08-03 19:43:54.620 ,4,0,0.,24.0,0.,24.0
1979-08-03 19:44:18.620 ,3,1,0.,24.0,0.,24.0
1979-08-03 19:44:42.620 ,3,0,0.,24.0,0.,24.0
1979-08-03 19:45:06.620 ,2,1,0.,24.0,0.,24.0
1979-08-03 19:45:30.620 ,2,0,0.,24.0,0.,24.0
1979-08-03 19:45:54.620 ,1,1,0.,24.0,0.,24.0
1979-08-03 19:46:18.620 ,1,0,0.,24.0,0.,24.0
1979-08-03 19:46:42.620 ,0,1,0.,24.0,0.,24.0
1979-08-03 19:47:06.620 ,0,0,0.,24.0,0.,24.0
1979-08-03 19:47:30.620 ,0,1,0.,24.0,0.,24.0
1979-08-03 19:47:54.620 ,0,0,0.,24.0,0.,24.0
1979-08-03 19:48:18.620 ,1,1,0.,24.0,0.,24.0
1979-08-03 19:48:42.620 ,1,0,0.,24.0,0.,24.0
1979-08-03 19:49:06.620 ,2,1,0.,24.0,0.,24.0
1979-08-03 19:49:30.620 ,2,0,0.,24.0,0.,24.0
1979-08-03 19:49:54.620 ,3,1,0.,24.0,0.,24.0
1979-08-03 19:50:18.620 ,3,0,0.,24.0,0.,24.0
1979-08-03 19:50:42.620 ,4,1,0.,24.0,0.,24.0
1979-08-03 19:51:06.620 ,4,0,0.,24.0,0.,24.0
1979-08-03 19:51:30.620 ,5,1,0.,24.0,0.,24.0
1979-08-03 19:51:54.620 ,5,0,0.,24.0,0.,24.0
1979-08-03 19:52:18.620 ,6,1,0.,24.0,0.,24.0
1979-08-03 19:52:42.620 ,6,0,0.,24.0,0.,24.0
1979-08-03 19:53:06.620 ,7,1,0.,24.0,0.,24.0
1979-08-03 19:53:30.620 ,7,0,0.,24.0,0.,24.0
1979-08-03 19:53:54.620 ,7,1,0.,24.0,0.,24.0
1979-08-03 19:54:18.620 ,7,0,0.,24.0,0.,24.0
1979-08-03 19:54:42.620 ,6,1,0.,24.0,0.,24.0
1979-08-03 19:55:06.620 ,6,0,0.,24.0,0.,24.0
1979-08-03 19:55:30.620 ,5,1,0.,24.0,0.,24.0
1979-08-03 19:55:54.620 ,5,0,0.,24.0,0.,24.0
1979-08-03 19:56:18.620 ,4,1,0.,24.0,0.,24.0
1979-08-03 19:56:42.620 ,4,0,0.,24.0,0.,24.0
1979-08-03 19:57:06.620 ,3,1,0.,24.0,0.,24.0
1979-08-03 19:57:30.620 ,3,0,0.,24.0,0.,24.0
1979-08-03 19:57:54.620 ,2,1,0.,24.0,0.,24.0
1979-08-03 19:58:18.620 ,2,0,0.,24.0,0.,24.0
1979-08-03 19:58:42.620 ,1,1,0.,24.0,0.,24.0
1979-08-03 19:59:06.620 ,1,0,0.,24.0,0.,24.0
1979-08-03 19:59:30.620 ,0,1,0.,24.0,0.,24.0
1979-08-03 19:59:54.620 ,0,0,0.,24.0,0.,24.0
1979-08-03 20:00:18.620 ,0,1,0.,24.0,0.,24.0
1979-08-03 20:00:42.620 ,0,0,0.,24.0,0.,24.0
1979-08-03 20:01:06.620 ,1,1,0.,24.0,0.,24.0
1979-08-03 20:01:30.620 ,1,0,0.,24.0,0.,24.0
1979-08-03 20:01:54.620 ,2,1,0.,24.0,0.,24.0
1979-08-03 20:02:18.620 ,2,0,0.,24.0,0.,24.0
1979-08-03 20:02:42.620 ,3,1,0.,24.0,0.,24.0
1979-08-03 20:03:06.620 ,3,0,0.,24.0,0.,24.0
1979-08-03 20:03:30.620 ,4,1,0.,24.0,0.,24.0
1979-08-03 20:03:54.620 ,4,0,0.,24.0,0.,24.0
1979-08-03 20:04:18.620 ,5,1,0.,24.0,0.,24.0
1979-08-03 20:04:42.620 ,5,0,0.,24.0,0.,24.0
1979-08-03 20:05:06.620 ,6,1,0.,24.0,0.,24.0
1979-08-03 20:05:30.620 ,6,0,0.,24.0,0.,24.0
1979-08-03 20:05:54.620 ,7,1,0.,24.0,0.,24.0
1979-08-03 20:06:18.620 ,7,0,0.,24.0,0.,24.0
1979-08-03 20:06:42.620 ,7,1,0.,24.0,0.,24.0
1979-08-03 20:07:06.620 ,7,0,0.,24.0,0.,24.0
1979-08-03 20:07:30.620 ,6,1,0.,24.0,0.,24.0
1979-08-03 20:07:54.620 ,6,0,0.,24.0,0.,24.0
1979-08-03 20:08:18.620 ,5,1,0.,24.0,0.,24.0
1979-08-03 20:08:42.620 ,5,0,0.,24.0,0.,24.0
1979-08-03 20:09:06.620 ,4,1,0.,24.0,0.,24.0
1979-08-03 20:09:30.620 ,4,0,0.,24.0,0.,24.0
1979-08-03 20:09:54.620 ,3,1,0.,24.0,0.,24.0
1979-08-03 20:10:18.620 ,3,0,0.,24.0,0.,24.0
1979-08-03 20:10:42.620 ,2,1,0.,24.0,0.,24.0
1979-08-03 20:11:06.620 ,2,0,0.,24.0,0.,24.0
1979-08-03 20:11:30.620 ,1,1,0.,24.0,0.,24.0
1979-08-03 20:11:54.620 ,1,0,0.,24.0,0.,24.0
1979-08-03 20:12:18.620 ,0,1,0.,24.0,0.,24.0
1979-08-03 20:12:42.620 ,0,0,0.,24.0,0.,24.0
1979-08-03 20:13:06.620 ,0,1,0.,24.0,0.,24.0
1979-08-03 20:13:30.620 ,0,0,0.,24.0,0.,24.0
1979-08-03 20:13:54.620 ,1,1,0.,24.0,0.,24.0
1979-08-03 20:14:18.620 ,1,0,0.,24.0,0.,24.0
1979-08-03 20:14:42.620 ,2,1,0.,24.0,0.,24.0
1979-08-03 20:15:06.620 ,2,0,0.,24.0,0.,24.0
1979-08-03 20:15:30.620 ,3,1,0.,24.0,0.,24.0
1979-08-03 20:15:54.620 ,3,0,0.,24.0,0.,24.0
1979-08-03 20:16:18.620 ,4,1,0.,24.0,0.,24.0
1979-08-03 20:16:42.620 ,4,0,0.,24.0,0.,24.0
1979-08-03 20:17:06.620 ,5,1,0.,24.0,0.,24.0
1979-08-03 20:17:30.620 ,5,0,0.,24.0,0.,24.0
1979-08-03 20:17:54.620 ,6,1,0.,24.0,0.,24.0
1979-08-03 20:18:18.620 ,6,0,0.,24.0,0.,24.0
1979-08-03 20:18:42.620 ,7,0,0.,24.0,0.,24.0
1979-08-03 20:19:06.620 ,7,0,0.,24.0,0.,24.0
1979-08-03 20:19:30.620 ,3,1,0.,24.0,0.,24.0
1979-08-03 20:19:54.620 ,0,1,0.,24.0,0.,24.0
1979-08-03 20:20:18.620 ,4,1,0.,24.0,0.,24.0
1979-08-03 20:20:42.620 ,7,1,0.,24.0,0.,24.0
1979-08-03 20:21:06.620 ,3,1,0.,24.0,0.,24.0
1979-08-03 20:21:30.620 ,0,1,0.,24.0,0.,24.0
1979-08-03 20:21:54.620 ,4,1,0.,24.0,0.,24.0
1979-08-03 20:22:18.620 ,7,1,0.,24.0,0.,24.0
1979-08-03 20:22:42.620 ,3,1,0.,24.0,0.,24.0
1979-08-03 20:23:06.620 ,0,1,0.,24.0,0.,24.0
1979-08-03 20:23:30.620 ,4,1,0.,24.0,0.,24.0
1979-08-03 20:23:54.620 ,7,1,0.,24.0,0.,24.0
1979-08-03 20:24:18.620 ,3,1,0.,24.0,0.,24.0
1979-08-03 20:24:42.620 ,0,1,0.,24.0,0.,24.0
1979-08-03 20:25:06.620 ,4,1,0.,24.0,0.,24.0
1979-08-03 20:25:30.620 ,7,1,0.,24.0,0.,24.0
1979-08-03 20:25:54.620 ,3,1,0.,24.0,0.,24.0
1979-08-03 20:26:18.620 ,0,1,0.,24.0,0.,24.0
1979-08-03 20:26:42.620 ,4,1,0.,24.0,0.,24.0
1979-08-03 20:27:06.620 ,7,1,0.,24.0,0.,24.0
1979-08-03 20:27:30.620 ,3,1,0.,24.0,0.,24.0
1979-08-03 20:27:54.620 ,0,1,0.,24.0,0.,24.0
1979-08-03 20:28:18.620 ,4,1,0.,24.0,0.,24.0
1979-08-03 20:28:42.620 ,7,1,0.,24.0,0.,24.0
1979-08-03 20:29:06.620 ,3,1,0.,24.0,0.,24.0
1979-08-03 20:29:30.620 ,0,1,0.,24.0,0.,24.0
1979-08-03 20:29:54.620 ,0,0,0.,24.0,0.,24.0
1979-08-03 20:30:18.620 ,0,0,0.,24.0,0.,24.0
1979-08-03 20:30:42.620 ,5,1,0.,24.0,0.,24.0
1979-08-03 20:31:06.620 ,5,0,0.,24.0,0.,24.0
1979-08-03 20:31:30.620 ,4,1,0.,24.0,0.,24.0
1979-08-03 20:31:54.620 ,4,0,0.,24.0,0.,24.0
1979-08-03 20:32:18.620 ,3,1,0.,24.0,0.,24.0
1979-08-03 20:32:42.620 ,3,0,0.,24.0,0.,24.0
1979-08-03 20:33:06.620 ,2,1,0.,24.0,0.,24.0
1979-08-03 20:33:30.620 ,2,0,0.,24.0,0.,24.0
1979-08-03 20:33:54.620 ,1,1,0.,24.0,0.,24.0
1979-08-03 20:34:18.620 ,1,0,0.,24.0,0.,24.0
1979-08-03 20:34:42.620 ,0,1,0.,24.0,0.,24.0
1979-08-03 20:35:06.620 ,0,0,0.,24.0,0.,24.0
1979-08-03 20:35:30.620 ,0,1,0.,24.0,0.,24.0
1979-08-03 20:35:54.620 ,0,0,0.,24.0,0.,24.0
1979-08-03 20:36:18.620 ,1,1,0.,24.0,0.,24.0
1979-08-03 20:36:42.620 ,1,0,0.,24.0,0.,24.0
1979-08-03 20:37:06.620 ,2,1,0.,24.0,0.,24.0
1979-08-03 20:37:30.620 ,2,0,0.,24.0,0.,24.0
1979-08-03 20:37:54.620 ,3,1,0.,24.0,0.,24.0
1979-08-03 20:38:18.620 ,3,0,0.,24.0,0.,24.0
1979-08-03 20:38:42.620 ,4,1,0.,24.0,0.,24.0
1979-08-03 20:39:06.620 ,4,0,0.,24.0,0.,24.0
1979-08-03 20:39:30.620 ,5,1,0.,24.0,0.,24.0
1979-08-03 20:39:54.620 ,5,0,0.,24.0,0.,24.0
1979-08-03 20:40:18.620 ,6,1,0.,24.0,0.,24.0
1979-08-03 20:40:42.620 ,6,0,0.,24.0,0.,24.0
1979-08-03 20:41:06.620 ,7,1,0.,24.0,0.,24.0
1979-08-03 20:41:30.620 ,7,0,0.,24.0,0.,24.0
1979-08-03 20:41:54.620 ,7,1,0.,24.0,0.,24.0
1979-08-03 20:42:18.620 ,7,0,0.,24.0,0.,24.0
1979-08-03 20:42:42.620 ,6,1,0.,24.0,0.,24.0
1979-08-03 20:43:06.620 ,6,0,0.,24.0,0.,24.0
1979-08-03 20:43:30.620 ,5,1,0.,24.0,0.,24.0
1979-08-03 20:43:54.620 ,5,0,0.,24.0,0.,24.0
1979-08-03 20:44:18.620 ,4,1,0.,24.0,0.,24.0
1979-08-03 20:44:42.620 ,4,0,0.,24.0,0.,24.0
1979-08-03 20:45:06.610 ,3,1,0.,24.0,0.,24.0
1979-08-03 20:45:30.610 ,3,0,0.,24.0,0.,24.0
1979-08-03 20:45:54.610 ,2,1,0.,24.0,0.,24.0
1979-08-03 20:46:18.610 ,2,0,0.,24.0,0.,24.0
1979-08-03 20:46:42.610 ,1,1,0.,24.0,0.,24.0
1979-08-03 20:47:06.610 ,1,0,0.,24.0,0.,24.0
1979-08-03 20:47:30.610 ,0,1,0.,24.0,0.,24.0
1979-08-03 20:47:54.610 ,0,0,0.,24.0,0.,24.0
1979-08-03 20:48:18.610 ,0,1,0.,24.0,0.,24.0
1979-08-03 20:48:42.610 ,0,0,0.,24.0,0.,24.0
1979-08-03 20:49:06.610 ,1,1,0.,24.0,0.,24.0
1979-08-03 20:49:30.610 ,1,0,0.,24.0,0.,24.0
1979-08-03 20:49:54.610 ,2,1,0.,24.0,0.,24.0
1979-08-03 20:50:18.610 ,2,0,0.,24.0,0.,24.0
1979-08-03 20:50:42.610 ,3,1,0.,24.0,0.,24.0
1979-08-03 20:51:06.610 ,3,0,0.,24.0,0.,24.0
1979-08-03 20:51:30.610 ,4,1,0.,24.0,0.,24.0
1979-08-03 20:51:54.610 ,4,0,0.,24.0,0.,24.0
1979-08-03 20:52:18.610 ,5,1,0.,24.0,0.,24.0
1979-08-03 20:52:42.610 ,5,0,0.,24.0,0.,24.0
1979-08-03 20:53:06.610 ,6,1,0.,24.0,0.,24.0
1979-08-03 20:53:30.610 ,6,0,0.,24.0,0.,24.0
1979-08-03 20:53:54.610 ,7,1,0.,24.0,0.,24.0
1979-08-03 20:54:18.610 ,7,0,0.,24.0,0.,24.0
1979-08-03 20:54:42.610 ,7,1,0.,24.0,0.,24.0
1979-08-03 20:55:06.610 ,7,0,0.,24.0,0.,24.0
1979-08-03 20:55:30.610 ,6,1,0.,24.0,0.,24.0
1979-08-03 20:55:54.610 ,6,0,0.,24.0,0.,24.0
1979-08-03 20:56:18.610 ,5,1,0.,24.0,0.,24.0
1979-08-03 20:56:42.610 ,5,0,0.,24.0,0.,24.0
1979-08-03 20:57:06.610 ,4,1,0.,24.0,0.,24.0
1979-08-03 20:57:30.610 ,4,0,0.,24.0,0.,24.0
1979-08-03 20:57:54.610 ,3,1,0.,24.0,0.,24.0
1979-08-03 20:58:18.610 ,3,0,0.,24.0,0.,24.0
1979-08-03 20:58:42.610 ,2,1,0.,24.0,0.,24.0
1979-08-03 20:59:06.610 ,2,0,0.,24.0,0.,24.0
1979-08-03 20:59:30.610 ,1,1,0.,24.0,0.,24.0
1979-08-03 20:59:54.610 ,1,0,0.,24.0,0.,24.0
1979-08-03 21:00:18.620 ,0,1,0.,24.0,0.,24.0
